#timestamp,LO_Frequency,Hit,StdDev 
1504688415.1,286046998.5,N,1.1
1504688435.9,286046998.3,N,1.1
1504688455.7,286042159.8,Y,0.0
1504688475.5,286047000.6,P,0.3
1504688495.4,286047000.9,N,0.4
1504688515.2,286047000.8,N,0.4
1504688535.1,286046998.5,Y,0.0
1504688536.0,286046998.5,P,1.0
1504688555.8,286046998.5,N,1.0
1504688575.6,286046999.4,N,0.8
1504688595.5,286046996.5,Y,0.0
1504688615.3,286046998.4,P,0.4
1504688635.2,286046998.9,N,0.3
1504688655.0,286047001.1,P,1.0
1504688655.9,286047001.1,N,1.1
1504688675.8,286046998.6,N,1.1
1504688695.6,286047000.4,N,1.1
1504688715.4,286047000.8,N,1.1
1504688735.3,286046998.2,N,1.1
1504688755.1,286047001.2,N,1.2
1504688775.8,286046998.1,N,1.2
1504688795.7,286047001.2,N,1.2
1504688815.5,286046998.6,N,1.2
1504688835.4,286046998.2,N,1.3
1504688855.2,286046999.4,N,1.2
1504688875.0,286046999.0,N,1.2
1504688875.9,286046999.0,N,1.2
1504688895.8,286046998.7,N,1.1
1504688915.6,286046998.6,N,1.1
1504688935.5,286046999.3,N,1.1
1504688955.3,286046999.0,N,1.1
1504688975.1,286046998.8,N,1.1
1504688995.9,286047001.0,N,1.1
1504689015.7,286046998.2,N,1.1
1504689035.5,286047000.5,N,1.1
1504689055.4,286046999.9,N,1.1
1504689075.2,286047000.6,N,1.1
1504689095.1,286047000.1,N,1.1
1504689096.0,286047000.1,N,1.0
1504689115.8,286047001.7,N,1.1
1504689135.6,286047004.1,Y,0.0
1504689155.5,286047003.8,P,2.1
1504689175.3,286047004.0,N,2.0
1504689195.2,286047002.1,N,1.8
1504689215.9,286047003.9,N,1.7
1504689235.7,286047003.2,N,1.6
1504689255.6,286047001.4,N,1.5
1504689275.4,286047003.6,N,1.5
1504689295.2,286047003.6,N,1.4
1504689315.1,286047003.7,N,1.4
1504689316.0,286047003.7,N,1.3
1504689335.8,286047003.1,N,1.3
1504689355.7,286047006.0,Y,0.0
1504689375.5,286047002.8,P,0.1
1504689395.3,286047002.6,P,0.2
1504689415.2,286047002.4,P,0.2
1504689435.0,286047001.6,Y,0.0
1504689435.9,286047001.6,P,0.5
1504689455.8,286046998.1,P,2.0
1504689475.6,286046998.1,N,2.1
1504689495.4,286046998.2,N,2.0
1504689515.3,286046998.7,N,1.9
1504689535.1,286047000.4,N,1.7
1504689555.8,286046999.7,N,1.6
1504689575.7,286046999.9,N,1.5
1504689595.5,286047002.6,N,1.7
1504689615.4,286046999.7,N,1.6
1504689635.2,286047000.3,N,1.6
1504689655.0,286047002.3,N,1.6
1504689655.9,286047002.3,N,1.7
1504689675.8,286047000.2,N,1.6
1504689695.6,286047000.6,N,1.5
1504689715.5,286047000.7,N,1.5
1504689735.3,286047000.4,N,1.5
1504689755.1,286046998.5,N,1.5
1504689775.9,286047001.2,N,1.5
1504689795.7,286047000.4,N,1.4
1504689815.5,286047000.0,N,1.4
1504689835.4,286046999.8,N,1.4
1504689855.2,286046999.8,N,1.3
1504689875.1,286047000.1,N,1.3
1504689876.0,286047000.1,N,1.3
1504689895.8,286047002.5,N,1.3
1504689915.6,286047001.9,N,1.3
1504689935.5,286047001.8,N,1.3
1504689955.3,286047001.6,N,1.3
1504689975.2,286047002.6,N,1.3
1504689995.9,286047002.7,N,1.4
1504690015.7,286046999.8,N,1.3
1504690035.6,286047002.7,N,1.3
1504690055.4,286047001.6,N,1.2
1504690075.2,286047002.4,N,1.2
1504690095.1,286047000.0,N,1.2
1504690096.0,286047000.0,N,1.2
1504690115.8,286046999.7,N,1.2
1504690135.7,286047002.5,N,1.2
1504690155.5,286047002.6,N,1.2
1504690175.3,286047001.8,N,1.2
1504690195.2,286047004.4,Y,0.0
1504690215.0,286047002.4,P,0.7
1504690215.9,286047002.4,P,0.6
1504690235.8,286047000.2,N,0.9
1504690255.6,286047002.5,N,0.9
1504690275.4,286047002.0,N,0.8
1504690295.3,286047001.5,N,0.8
1504690315.1,286047000.0,N,0.9
1504690335.9,286047000.3,N,1.0
1504690355.7,286047000.5,N,0.9
1504690375.5,286047001.0,N,0.9
1504690395.4,286047002.8,Y,0.0
1504690415.2,286046998.9,P,1.2
1504690435.1,286046998.5,N,1.2
1504690436.0,286046998.5,N,1.2
1504690455.8,286046998.6,N,1.1
1504690475.6,286047011.9,Y,0.0
1504690495.5,286047000.1,P,0.5
1504690515.3,286047000.1,N,0.4
1504690535.1,286047002.7,P,1.3
1504690555.9,286047000.2,N,1.2
1504690575.7,286047002.8,N,1.4
1504690595.6,286046999.8,N,1.3
1504690615.4,286047000.2,N,1.3
1504690635.2,286047000.1,N,1.2
1504690655.1,286046999.9,N,1.2
1504690656.0,286046999.9,N,1.1
1504690675.8,286047000.3,N,1.1
1504690695.7,286047000.3,N,1.0
1504690715.5,286047000.0,N,1.0
1504690735.3,286047002.4,N,1.1
1504690755.2,286047000.1,N,1.1
1504690775.0,286047002.7,N,1.1
1504690775.9,286047002.7,N,1.2
1504690795.8,286047002.6,N,1.3
1504690815.6,286046999.7,N,1.2
1504690835.4,286047000.1,N,1.2
1504690855.3,286047000.2,N,1.2
1504690875.1,286047002.1,N,1.2
1504690895.9,286047002.2,N,1.2
1504690915.7,286047001.7,N,1.2
1504690935.5,286047004.4,Y,0.0
1504690955.4,286047002.3,P,0.7
1504690975.2,286047002.8,P,0.8
1504690995.1,286047002.4,N,0.7
1504690996.0,286047002.4,Y,0.0
1504691015.8,286046998.4,P,1.8
1504691035.6,286046998.6,N,1.7
1504691055.5,286046998.7,N,1.5
1504691075.3,286046998.8,N,1.4
1504691095.1,286047000.7,N,1.4
1504691115.9,286046999.1,N,1.3
1504691135.7,286046998.6,N,1.2
1504691155.6,286046999.1,N,1.2
1504691175.4,286046998.7,N,1.1
1504691195.2,286046998.4,N,1.1
1504691215.1,286046998.2,N,1.1
1504691216.0,286046998.2,N,1.1
1504691235.8,286047000.8,N,1.1
1504691255.7,286047001.0,N,1.2
1504691275.5,286047000.7,N,1.2
1504691295.3,286046998.2,N,1.2
1504691315.2,286046998.1,N,1.2
1504691335.0,286046998.1,N,1.2
1504691335.9,286046998.1,N,1.2
1504691355.8,286047000.7,N,1.2
1504691375.6,286047001.1,N,1.2
1504691395.4,286047000.3,N,1.2
1504691415.3,286047000.2,N,1.2
1504691435.1,286047000.4,N,1.2
1504691455.8,286047000.2,N,1.2
1504691475.7,286047002.7,N,1.3
1504691495.5,286047000.1,N,1.3
1504691515.4,286047002.1,N,1.4
1504691535.2,286047002.0,N,1.4
1504691555.0,286047002.4,N,1.4
1504691555.9,286047002.4,N,1.5
1504691575.8,286046999.8,N,1.5
1504691595.6,286046999.8,N,1.4
1504691615.5,286047000.3,N,1.4
1504691635.3,286047000.5,N,1.4
1504691655.1,286046999.9,N,1.4
1504691675.9,286047000.5,N,1.4
1504691695.7,286047000.8,N,1.4
1504691715.6,286047000.4,N,1.3
1504691735.4,286047000.9,N,1.3
1504691755.2,286047000.5,N,1.3
1504691775.1,286047000.4,N,1.2
1504691776.0,286047000.4,N,1.2
1504691795.8,286047002.7,N,1.2
1504691815.6,286047000.0,N,1.3
1504691835.5,286047000.5,N,1.2
1504691855.3,286047002.7,N,1.1
1504691875.2,286046999.8,N,1.1
1504691895.9,286046999.9,N,1.0
1504691915.7,286046999.9,N,1.0
1504691935.6,286047002.7,N,1.0
1504691955.4,286047002.4,N,1.1
1504691975.3,286046999.8,N,1.1
1504691995.1,286047001.1,N,1.1
1504691996.0,286047001.1,N,1.1
